period_start,C,m1,H,J0,J1,J2,J3,J4,J5,JA,JB,JC,JD,JJ,JK,JN,#
2014-09-08 00:00:40,-0.00,0.09,0.00,22.79,26.97,29.55,9.54,40.24,1019.55,2040.94,3458.09,3307.99,3580.00,499.76,498.15,6.49,0000 0000 0000 0000 000000
2014-09-08 00:05:41,0.00,0.09,0.00,22.81,26.97,29.56,9.62,40.31,1019.55,2040.90,3458.00,3307.96,3579.99,499.87,498.30,6.53,0000 0000 0000 0000 000000
2014-09-08 00:10:42,0.01,0.09,0.00,22.83,26.97,29.57,9.65,40.30,1019.55,2040.92,3457.99,3307.83,3579.91,500.24,498.66,6.57,0000 0000 0000 0000 000000
2014-09-08 00:15:43,0.03,0.10,0.00,22.84,26.97,29.56,9.57,40.29,1019.55,2040.93,3457.70,3307.45,3579.34,499.52,497.98,6.62,0000 0000 0000 0000 000000
2014-09-08 00:20:44,0.02,0.10,0.00,22.83,26.97,29.56,9.58,40.09,1019.55,2040.89,3457.08,3307.05,3579.01,500.06,498.46,6.66,0000 0000 0000 0000 000000
2014-09-08 00:25:45,0.00,0.10,0.00,22.80,26.97,29.56,9.66,40.14,1019.50,2040.87,3457.00,3307.00,3579.00,500.53,498.67,6.70,0000 0000 0000 0000 000000
2014-09-08 00:30:46,-0.00,0.10,0.00,22.80,26.97,29.55,9.60,40.36,1019.22,2040.80,3456.88,3306.99,3578.75,499.84,498.29,6.74,0000 0000 0000 0000 000000
2014-09-08 00:35:47,0.04,0.10,0.00,22.79,26.97,29.56,9.65,40.31,1019.08,2040.87,3456.31,3306.97,3578.21,499.84,498.11,6.78,0000 0000 0000 0000 000000
2014-09-08 00:40:48,0.01,0.10,0.00,22.80,26.98,29.57,9.60,40.20,1019.06,2040.91,3456.03,3306.89,3578.01,500.05,498.28,6.82,0000 0000 0000 0000 000000
2014-09-08 00:45:49,0.00,0.10,0.00,22.81,26.98,29.59,9.65,40.29,1018.99,2040.66,3456.00,3306.18,3577.99,499.82,498.07,6.87,0000 0000 0000 0000 000000
2014-09-08 00:50:50,0.01,0.10,0.00,22.78,26.98,29.60,9.60,40.44,1018.72,2040.81,3455.95,3306.02,3577.92,500.29,498.41,6.91,0000 0000 0000 0000 000000
2014-09-08 00:55:52,0.03,0.10,0.00,22.75,26.98,29.58,9.68,40.34,1018.60,2040.94,3455.53,3306.02,3577.57,500.30,498.38,6.95,0000 0000 0000 0000 000000
2014-09-08 01:00:53,0.01,0.10,0.00,22.76,26.98,29.57,9.63,40.16,1018.57,2040.93,3455.07,3306.01,3577.10,499.85,497.87,6.99,0000 0000 0000 0000 000000
2014-09-08 01:05:54,-0.00,0.10,0.00,22.74,26.98,29.56,9.60,40.32,1018.58,2040.90,3454.99,3305.99,3577.00,500.17,498.28,7.03,0000 0000 0000 0000 000000
2014-09-08 01:10:55,0.01,0.10,0.00,22.73,26.99,29.56,9.66,40.48,1018.57,2040.89,3454.79,3305.94,3576.96,499.86,497.93,7.08,0000 0000 0000 0000 000000
2014-09-08 01:15:56,0.01,0.10,0.00,22.72,26.99,29.56,9.61,40.67,1018.53,2040.75,3454.28,3305.57,3576.46,499.74,497.81,7.12,0000 0000 0000 0000 000000
2014-09-08 01:20:58,0.02,0.10,0.00,22.75,27.00,29.58,9.69,40.42,1018.53,2040.79,3454.01,3305.10,3576.02,500.15,498.06,7.16,0000 0000 0000 0000 000000
2014-09-08 01:25:59,-0.03,0.10,0.00,22.74,27.00,29.60,9.54,40.43,1018.56,2040.55,3453.93,3305.01,3575.99,499.51,497.71,7.20,0000 0000 0000 0000 000000
2014-09-08 01:31:00,0.00,0.10,0.00,22.74,27.00,29.60,9.55,40.58,1018.57,2040.41,3453.39,3304.99,3575.86,499.78,497.71,7.24,0000 0000 0000 0000 000000
2014-09-08 01:36:01,0.03,0.10,0.00,22.72,27.00,29.60,9.67,40.48,1018.57,2040.53,3453.02,3304.97,3575.32,500.02,498.18,7.28,0000 0000 0000 0000 000000
2014-09-08 01:41:02,0.00,0.10,0.00,22.66,27.00,29.60,9.70,40.43,1018.57,2040.51,3453.00,3304.86,3575.02,500.25,498.54,7.33,0000 0000 0000 0000 000000
2014-09-08 01:46:03,0.01,0.11,0.00,22.68,27.02,29.61,9.64,40.62,1018.58,2040.55,3452.80,3304.43,3574.98,499.74,497.99,7.37,0000 0000 0000 0000 000000
2014-09-08 01:51:04,0.02,0.11,0.00,22.72,27.02,29.61,9.67,40.68,1018.59,2040.33,3452.10,3304.03,3574.79,500.16,498.49,7.41,0000 0000 0000 0000 000000
2014-09-08 01:56:06,0.02,0.11,0.00,22.65,27.02,29.63,9.61,40.27,1018.74,2040.43,3452.00,3304.00,3574.16,499.96,498.10,7.45,0000 0000 0000 0000 000000
2014-09-08 02:01:07,-0.02,0.11,0.00,22.59,27.03,29.62,9.77,40.35,1018.83,2040.25,3451.86,3303.99,3574.00,500.29,498.85,7.49,0000 0000 0000 0000 000000
2014-09-08 02:06:08,0.03,0.11,0.00,22.64,27.05,29.64,9.66,40.27,1018.70,2040.27,3451.16,3303.92,3573.94,499.79,498.27,7.54,0000 0000 0000 0000 000000
2014-09-08 02:11:09,0.02,0.11,0.00,22.67,27.05,29.68,9.59,40.37,1018.80,2040.18,3451.00,3303.47,3573.32,499.84,498.10,7.58,0000 0000 0000 0000 000000
2014-09-08 02:16:10,0.00,0.11,0.00,22.64,27.05,29.68,9.61,40.40,1018.90,2040.12,3450.91,3303.03,3573.01,499.74,498.07,7.62,0000 0000 0000 0000 000000
2014-09-08 02:21:11,0.02,0.11,0.00,22.64,27.07,29.68,9.65,40.28,1019.04,2040.20,3450.38,3303.01,3572.97,499.93,498.50,7.66,0000 0000 0000 0000 000000
2014-09-08 02:26:12,0.01,0.11,0.00,22.61,27.07,29.69,9.65,40.24,1019.05,2040.04,3450.00,3302.98,3572.37,499.85,498.39,7.70,0000 0000 0000 0000 000000
2014-09-08 02:31:13,0.02,0.11,0.00,22.66,27.08,29.71,9.59,40.14,1019.03,2040.06,3449.93,3302.67,3572.03,499.93,498.34,7.74,0000 0000 0000 0000 000000
2014-09-08 02:36:13,0.01,0.11,0.00,22.68,27.10,29.72,9.58,40.23,1019.02,2040.03,3449.33,3302.11,3571.99,499.97,498.33,7.79,0000 0000 0000 0000 000000
2014-09-08 02:41:14,0.01,0.11,0.00,22.71,27.10,29.72,9.65,40.05,1019.05,2040.02,3449.01,3302.01,3571.63,499.76,498.16,7.83,0000 0000 0000 0000 000000
2014-09-08 02:46:15,0.01,0.11,0.00,22.68,27.10,29.74,9.55,40.11,1019.06,2040.02,3448.97,3301.99,3571.04,499.47,498.01,7.87,0000 0000 0000 0000 000000
2014-09-08 02:51:16,0.01,0.11,0.00,22.71,27.12,29.75,9.61,40.17,1019.06,2040.01,3448.68,3301.86,3571.00,500.05,498.56,7.91,0000 0000 0000 0000 000000
2014-09-08 02:56:17,0.04,0.11,0.00,22.72,27.12,29.75,9.64,40.21,1019.06,2040.00,3448.05,3301.17,3570.61,499.97,498.35,7.95,0000 0000 0000 0000 000000
2014-09-08 03:01:19,0.00,0.11,0.00,22.74,27.13,29.76,9.67,40.32,1019.06,2040.00,3447.91,3301.00,3570.02,500.21,498.46,8.00,0000 0000 0000 0000 000000
2014-09-08 03:06:20,0.02,0.11,0.00,22.73,27.15,29.76,9.60,40.27,1019.06,2040.00,3447.21,3300.87,3569.81,499.83,498.30,8.04,0000 0000 0000 0000 000000
2014-09-08 03:11:21,0.03,0.12,0.00,22.70,27.15,29.76,9.72,40.36,1019.06,2040.00,3446.98,3300.23,3569.14,500.49,498.75,8.08,0000 0000 0000 0000 000000
2014-09-08 03:16:23,0.01,0.12,0.00,22.74,27.15,29.76,9.53,40.20,1019.06,2040.00,3446.36,3300.01,3568.98,499.36,497.82,8.12,0000 0000 0000 0000 000000
2014-09-08 03:21:24,0.01,0.12,0.00,22.77,27.16,29.79,9.67,40.25,1019.06,2040.00,3446.00,3299.96,3568.41,500.09,498.44,8.16,0000 0000 0000 0000 000000
2014-09-08 03:26:25,0.03,0.12,0.00,22.77,27.17,29.80,9.61,40.16,1019.07,2040.00,3445.72,3299.51,3568.02,499.82,497.96,8.21,0000 0000 0000 0000 000000
2014-09-08 03:31:26,0.02,0.12,0.00,22.76,27.17,29.80,9.56,40.33,1019.14,2040.00,3445.06,3299.02,3567.65,499.74,498.10,8.25,0000 0000 0000 0000 000000
2014-09-08 03:36:27,0.01,0.12,0.00,22.75,27.18,29.80,9.57,40.27,1019.22,2040.00,3444.75,3298.92,3567.02,500.25,498.58,8.29,0000 0000 0000 0000 000000
2014-09-08 03:41:28,0.04,0.12,0.00,22.76,27.19,29.81,9.56,40.22,1019.13,2039.99,3444.07,3298.22,3566.55,499.54,498.04,8.33,0000 0000 0000 0000 000000
2014-09-08 03:46:30,0.00,0.12,0.00,22.77,27.20,29.83,9.65,40.17,1019.18,2039.99,3443.95,3298.00,3566.03,500.43,498.68,8.37,0000 0000 0000 0000 000000
2014-09-08 03:51:31,0.01,0.12,0.00,22.76,27.20,29.83,9.66,40.14,1019.18,2039.99,3443.44,3297.98,3565.94,499.89,498.32,8.41,0000 0000 0000 0000 000000
2014-09-08 03:56:32,0.04,0.13,0.00,22.76,27.20,29.83,9.67,40.15,1019.13,2039.99,3443.01,3297.38,3565.20,500.24,498.53,8.46,0000 0000 0000 0000 000000
2014-09-08 04:01:33,0.02,0.13,0.00,22.78,27.20,29.84,9.54,40.02,1019.08,2039.99,3442.67,3297.01,3564.96,499.77,498.10,8.50,0000 0000 0000 0000 000000
2014-09-08 04:06:34,0.02,0.13,0.00,22.78,27.21,29.83,9.70,40.07,1019.07,2039.98,3442.02,3296.96,3564.18,500.23,498.45,8.54,0000 0000 0000 0000 000000
2014-09-08 04:11:35,0.02,0.13,0.00,22.75,27.22,29.83,9.54,40.12,1019.06,2039.97,3441.99,3296.30,3564.00,499.68,498.27,8.58,0000 0000 0000 0000 000000
2014-09-08 04:16:36,0.01,0.13,0.00,22.75,27.22,29.84,9.62,40.08,1019.06,2039.97,3441.55,3296.01,3563.93,499.63,498.05,8.62,0000 0000 0000 0000 000000
2014-09-08 04:21:37,0.02,0.13,0.00,22.74,27.22,29.84,9.70,40.23,1019.06,2039.99,3441.06,3296.00,3563.31,500.55,498.88,8.67,0000 0000 0000 0000 000000
2014-09-08 04:26:39,0.00,0.13,0.00,22.41,27.22,29.82,9.61,40.27,1019.05,2039.97,3440.98,3295.98,3563.01,499.47,498.30,8.71,0000 0000 0000 0000 000000
2014-09-08 04:31:40,0.03,0.13,0.00,21.38,27.22,29.96,9.67,40.25,1019.06,2039.98,3440.49,3295.66,3562.94,499.95,500.37,8.75,0000 0000 0000 0000 000000
2014-09-08 04:36:41,0.03,0.13,0.00,21.48,27.22,30.09,9.59,40.42,1019.06,2039.98,3440.01,3295.07,3562.15,500.04,500.49,8.79,0000 0000 0000 0000 000000
2014-09-08 04:41:42,0.00,0.13,0.00,21.36,27.22,30.13,9.66,40.38,1019.06,2039.96,3439.91,3295.01,3562.00,499.79,500.55,8.83,0000 0000 0000 0000 000000
2014-09-08 04:46:43,0.02,0.13,0.00,21.63,27.22,30.05,9.79,40.33,1019.06,2039.94,3439.35,3294.82,3561.83,500.56,500.62,8.87,0000 0000 0000 0000 000000
2014-09-08 04:51:45,0.03,0.14,0.00,21.68,27.24,29.99,9.72,40.39,1019.05,2039.94,3439.00,3294.11,3561.08,500.20,500.32,8.92,0000 0000 0000 0000 000000
2014-09-08 04:56:46,0.00,0.14,0.00,21.23,27.25,30.09,9.67,40.53,1019.06,2039.94,3438.72,3294.00,3560.99,499.74,500.67,8.96,0000 0000 0000 0000 000000
2014-09-08 05:01:47,0.01,0.14,0.00,20.89,27.25,30.26,9.66,40.42,1019.02,2039.86,3438.10,3293.95,3560.47,499.46,501.03,9.00,0000 0000 0000 0000 000000
2014-09-08 05:06:48,0.02,0.14,0.00,20.49,27.25,30.19,9.84,40.55,1018.97,2039.73,3437.86,3293.30,3560.00,499.91,502.02,9.04,0000 0000 0000 0000 000000
2014-09-08 05:11:50,-0.01,0.14,0.00,20.26,27.26,29.91,9.82,40.54,1018.80,2039.44,3437.12,3293.01,3559.75,500.05,502.59,9.08,0000 0000 0000 0000 000000
2014-09-08 05:16:51,0.04,0.14,0.00,20.30,27.27,29.65,9.80,40.58,1018.63,2039.53,3436.95,3292.99,3559.10,499.85,502.04,9.13,0000 0000 0000 0000 000000
2014-09-08 05:21:52,0.03,0.14,0.00,20.19,27.27,29.45,9.81,40.61,1018.58,2039.59,3436.58,3292.84,3558.99,500.00,502.43,9.17,0000 0000 0000 0000 000000
2014-09-08 05:26:53,0.02,0.14,0.00,20.64,27.26,29.57,9.73,40.51,1018.57,2039.55,3436.07,3292.29,3558.85,500.16,501.81,9.21,0000 0000 0000 0000 000000
2014-09-08 05:31:54,0.02,0.14,0.00,21.20,27.25,29.83,9.68,40.20,1018.57,2039.51,3436.00,3292.02,3558.12,499.75,500.43,9.25,0000 0000 0000 0000 000000
2014-09-08 05:36:55,0.02,0.14,0.00,21.50,27.25,29.97,9.74,40.37,1018.57,2039.69,3435.51,3292.00,3557.99,500.06,500.13,9.29,0000 0000 0000 0000 000000
2014-09-08 05:41:57,0.02,0.14,0.00,21.97,27.25,30.09,9.75,40.37,1018.58,2039.78,3435.05,3291.87,3557.70,500.10,499.44,9.33,0000 0000 0000 0000 000000
2014-09-08 05:46:58,0.03,0.14,0.00,22.34,27.27,30.02,9.80,40.33,1018.58,2039.73,3434.98,3291.11,3557.04,500.48,499.17,9.38,0000 0000 0000 0000 000000
2014-09-08 05:51:59,0.02,0.15,0.00,22.53,27.27,30.02,9.72,40.17,1018.60,2039.74,3434.39,3291.00,3556.88,500.14,498.65,9.42,0000 0000 0000 0000 000000
2014-09-08 05:57:00,0.01,0.15,0.00,22.69,27.30,30.00,9.65,40.23,1018.60,2039.68,3434.01,3290.85,3556.10,500.68,498.97,9.46,0000 0000 0000 0000 000000
2014-09-08 06:02:01,0.03,0.15,0.00,22.80,27.30,29.99,9.63,40.09,1018.59,2039.72,3433.88,3290.16,3556.00,500.31,498.29,9.50,0000 0000 0000 0000 000000
2014-09-08 06:07:02,0.01,0.15,0.00,22.90,27.30,29.99,9.63,40.45,1018.67,2039.59,3433.17,3290.00,3555.48,499.91,497.71,9.54,0000 0000 0000 0000 000000
2014-09-08 06:12:04,-0.01,0.15,0.00,22.98,27.30,30.01,9.63,40.33,1018.67,2039.36,3432.95,3289.83,3555.00,500.47,498.01,9.59,0000 0000 0000 0000 000000
2014-09-08 06:17:05,0.06,0.15,0.00,23.03,27.30,30.01,9.61,40.40,1018.59,2039.56,3432.41,3289.28,3554.92,500.46,497.81,9.63,0000 0000 0000 0000 000000
2014-09-08 06:22:06,0.02,0.15,0.00,23.08,27.30,30.04,9.65,40.43,1018.57,2039.59,3432.01,3289.01,3554.23,500.42,497.93,9.67,0000 0000 0000 0000 000000
2014-09-08 06:27:07,0.01,0.15,0.00,23.12,27.30,30.01,9.65,40.27,1018.57,2039.67,3431.95,3289.00,3554.01,500.02,497.45,9.71,0000 0000 0000 0000 000000
2014-09-08 06:32:08,0.00,0.15,0.00,23.13,27.30,30.00,9.63,40.45,1018.55,2039.58,3431.39,3288.93,3553.97,499.90,497.36,9.75,0000 0000 0000 0000 000000
2014-09-08 06:37:09,0.06,0.15,0.00,23.13,27.30,30.01,9.56,40.54,1018.55,2039.78,3431.02,3288.61,3553.53,499.78,497.26,9.79,0000 0000 0000 0000 000000
2014-09-08 06:42:11,0.02,0.16,0.00,23.13,27.28,30.06,9.61,40.24,1018.55,2039.87,3430.89,3288.09,3553.02,500.33,497.51,9.84,0000 0000 0000 0000 000000
2014-09-08 06:47:12,0.01,0.16,0.00,23.13,27.27,30.15,9.66,40.35,1018.57,2039.84,3430.22,3288.00,3552.99,500.70,498.14,9.88,0000 0000 0000 0000 000000
2014-09-08 06:52:13,0.01,0.16,0.00,23.08,27.27,30.13,9.63,40.30,1018.57,2039.91,3430.02,3287.99,3552.77,499.68,497.39,9.92,0000 0000 0000 0000 000000
2014-09-08 06:57:14,0.01,0.16,0.00,23.08,27.25,30.08,9.59,40.38,1018.57,2039.83,3429.91,3287.84,3552.06,500.07,497.65,9.96,0000 0000 0000 0000 000000
2014-09-08 07:02:15,0.03,0.16,0.00,23.10,27.25,30.03,9.58,40.29,1018.57,2039.94,3429.54,3287.40,3552.00,499.89,497.41,10.00,0000 0000 0000 0000 000000
2014-09-08 07:07:16,0.01,0.16,0.00,23.13,27.24,29.99,9.60,40.28,1018.58,2039.93,3429.07,3287.04,3551.99,499.51,497.08,10.05,0000 0000 0000 0000 000000
2014-09-08 07:12:17,0.01,0.16,0.00,23.16,27.22,29.93,9.53,40.40,1018.58,2039.95,3429.00,3287.00,3551.70,499.60,497.07,10.09,0000 0000 0000 0000 000000
2014-09-08 07:17:18,0.01,0.16,0.00,23.21,27.22,29.91,9.54,40.33,1018.57,2039.93,3428.81,3286.95,3551.09,499.79,496.87,10.13,0000 0000 0000 0000 000000
2014-09-08 07:22:19,0.03,0.16,0.00,23.25,27.22,29.86,9.57,40.22,1018.57,2039.93,3428.14,3286.42,3550.99,499.93,497.06,10.17,0000 0000 0000 0000 000000
2014-09-08 07:27:21,0.02,0.16,0.00,23.29,27.20,29.83,9.52,40.12,1018.57,2039.94,3428.00,3286.04,3550.53,499.41,496.58,10.21,0000 0000 0000 0000 000000
2014-09-08 07:32:22,0.01,0.16,0.00,23.33,27.20,29.78,9.58,40.24,1018.57,2039.92,3427.61,3286.00,3550.02,499.70,496.83,10.25,0000 0000 0000 0000 000000
2014-09-08 07:37:23,0.01,0.16,0.00,23.27,27.19,29.77,9.57,40.15,1018.48,2039.96,3427.03,3285.96,3549.99,499.66,496.91,10.30,0000 0000 0000 0000 000000
2014-09-08 07:42:24,0.02,0.16,0.00,23.06,27.17,29.88,9.62,40.21,1018.42,2039.97,3426.97,3285.70,3549.76,499.95,497.40,10.34,0000 0000 0000 0000 000000
2014-09-08 07:47:25,0.03,0.17,0.00,23.01,27.16,29.89,9.62,40.12,1018.31,2039.98,3426.61,3285.23,3549.18,500.22,497.84,10.38,0000 0000 0000 0000 000000
2014-09-08 07:52:26,0.01,0.17,0.00,23.00,27.14,29.91,9.62,40.28,1018.18,2039.99,3426.07,3285.02,3549.01,500.34,497.70,10.42,0000 0000 0000 0000 000000
2014-09-08 07:57:27,-0.00,0.17,0.00,23.00,27.12,29.86,9.59,40.33,1018.09,2039.98,3426.00,3285.00,3548.99,499.83,497.22,10.46,0000 0000 0000 0000 000000
2014-09-08 08:02:28,0.01,0.17,0.00,22.91,27.10,29.85,9.60,40.39,1018.09,2039.98,3425.66,3284.97,3548.64,499.65,497.41,10.51,0000 0000 0000 0000 000000
2014-09-08 08:07:29,0.02,0.17,0.00,22.89,27.08,29.81,9.56,40.39,1018.08,2039.99,3425.19,3284.93,3548.21,499.80,497.54,10.55,0000 0000 0000 0000 000000
2014-09-08 08:12:30,0.02,0.17,0.00,22.85,27.06,29.78,9.61,40.27,1018.08,2039.99,3424.99,3284.48,3548.01,500.35,497.97,10.59,0000 0000 0000 0000 000000
2014-09-08 08:17:31,0.01,0.17,0.00,22.87,27.05,29.76,9.58,40.37,1018.10,2039.99,3424.80,3284.05,3547.98,500.01,497.83,10.63,0000 0000 0000 0000 000000
2014-09-08 08:22:32,0.02,0.17,0.00,22.82,27.02,29.71,9.63,40.26,1018.29,2039.99,3424.17,3284.00,3547.69,500.11,498.03,10.67,0000 0000 0000 0000 000000
2014-09-08 08:27:34,0.00,0.17,0.00,22.80,27.01,29.66,9.65,40.33,1018.43,2039.99,3424.00,3284.00,3547.08,499.98,497.91,10.71,0000 0000 0000 0000 000000
2014-09-08 08:32:35,0.00,0.17,0.00,22.82,27.00,29.67,9.65,40.01,1018.49,2040.00,3423.88,3283.92,3547.00,500.09,498.10,10.76,0000 0000 0000 0000 000000
2014-09-08 08:37:35,0.05,0.17,0.00,22.79,26.98,29.68,9.61,40.12,1018.55,2040.02,3423.08,3283.17,3546.74,500.18,498.23,10.80,0000 0000 0000 0000 000000
2014-09-08 08:42:37,0.01,0.17,0.00,22.74,26.97,29.69,9.58,40.15,1018.55,2040.02,3422.99,3283.03,3546.11,499.58,497.50,10.84,0000 0000 0000 0000 000000
2014-09-08 08:47:38,0.02,0.17,0.00,22.70,26.96,29.65,9.59,40.26,1018.56,2040.03,3422.43,3283.00,3546.00,499.45,497.64,10.88,0000 0000 0000 0000 000000
2014-09-08 08:52:39,0.01,0.17,0.00,22.73,26.95,29.66,9.60,40.24,1018.57,2040.04,3422.02,3282.89,3545.75,499.91,497.98,10.92,0000 0000 0000 0000 000000
2014-09-08 08:57:40,0.03,0.18,0.00,22.71,26.94,29.65,9.56,40.52,1018.57,2040.09,3421.94,3282.41,3545.09,499.20,497.28,10.97,0000 0000 0000 0000 000000
2014-09-08 09:02:41,0.03,0.18,0.00,22.67,26.92,29.64,9.64,40.27,1018.57,2040.15,3421.23,3282.03,3545.00,499.69,497.92,11.01,0000 0000 0000 0000 000000
2014-09-08 09:07:43,0.04,0.18,0.00,22.65,26.92,29.61,9.61,40.46,1018.57,2040.38,3421.01,3282.00,3544.93,499.79,498.08,11.05,0000 0000 0000 0000 000000
2014-09-08 09:12:44,0.04,0.18,0.00,22.62,26.90,29.59,9.63,40.40,1018.57,2040.77,3420.93,3281.98,3544.34,500.11,498.36,11.09,0000 0000 0000 0000 000000
2014-09-08 09:17:45,0.03,0.18,0.00,22.66,26.90,29.59,9.63,40.32,1018.57,2040.73,3420.13,3281.40,3544.00,500.00,498.30,11.13,0000 0000 0000 0000 000000
2014-09-08 09:22:46,0.02,0.18,0.00,22.68,26.89,29.59,9.56,40.30,1018.57,2040.85,3420.00,3281.02,3543.90,499.98,498.23,11.17,0000 0000 0000 0000 000000
2014-09-08 09:27:47,0.03,0.18,0.00,22.69,26.87,29.59,9.59,40.42,1018.57,2040.93,3419.48,3280.98,3543.16,499.99,498.15,11.22,0000 0000 0000 0000 000000
2014-09-08 09:32:48,0.01,0.19,0.00,22.63,26.87,29.57,9.63,40.29,1018.57,2040.96,3419.01,3280.81,3542.97,499.51,497.78,11.26,0000 0000 0000 0000 000000
2014-09-08 09:37:49,0.03,0.19,0.00,22.64,26.87,29.55,9.63,40.26,1018.57,2040.97,3418.89,3280.10,3542.35,500.03,498.18,11.30,0000 0000 0000 0000 000000
2014-09-08 09:42:50,0.02,0.19,0.00,22.62,26.85,29.54,9.64,40.27,1018.57,2040.99,3418.22,3280.00,3542.01,499.80,498.01,11.34,0000 0000 0000 0000 000000
2014-09-08 09:47:51,0.03,0.19,0.00,22.63,26.85,29.54,9.58,40.34,1018.57,2040.97,3417.93,3279.76,3541.59,500.16,498.45,11.38,0000 0000 0000 0000 000000
2014-09-08 09:52:52,0.04,0.19,0.00,22.63,26.85,29.49,9.60,40.18,1018.58,2040.98,3417.11,3279.05,3541.01,500.08,498.42,11.43,0000 0000 0000 0000 000000
2014-09-08 09:57:53,0.01,0.19,0.00,22.62,26.85,29.48,9.63,40.11,1018.58,2040.99,3416.91,3278.99,3540.59,500.13,498.36,11.47,0000 0000 0000 0000 000000
2014-09-08 10:02:54,0.04,0.19,0.00,22.64,26.84,29.48,9.65,40.08,1018.58,2040.99,3416.19,3278.58,3540.02,500.34,498.66,11.51,0000 0000 0000 0000 000000
2014-09-08 10:07:56,0.02,0.19,0.00,22.65,26.83,29.47,9.61,40.13,1018.59,2040.99,3415.82,3278.02,3539.56,499.65,497.99,11.55,0000 0000 0000 0000 000000
2014-09-08 10:12:57,0.03,0.20,0.00,22.64,26.82,29.47,9.67,40.15,1018.62,2040.99,3415.06,3277.68,3538.99,500.37,498.58,11.59,0000 0000 0000 0000 000000
2014-09-08 10:17:58,0.03,0.20,0.00,22.63,26.82,29.45,9.60,40.13,1018.61,2040.99,3414.79,3277.04,3538.34,499.70,497.97,11.63,0000 0000 0000 0000 000000
2014-09-08 10:22:59,0.01,0.20,0.00,22.64,26.82,29.37,9.65,40.07,1018.70,2040.99,3414.07,3276.95,3537.97,500.05,498.47,11.68,0000 0000 0000 0000 000000
2014-09-08 10:28:00,0.05,0.20,0.00,22.64,26.82,29.36,9.67,40.16,1018.84,2040.99,3413.67,3276.24,3537.26,500.01,498.48,11.72,0000 0000 0000 0000 000000
2014-09-08 10:33:01,0.01,0.20,0.00,22.66,26.82,29.36,9.60,40.13,1018.90,2040.99,3413.02,3275.99,3536.91,499.90,498.15,11.76,0000 0000 0000 0000 000000
2014-09-08 10:38:03,0.04,0.20,0.00,22.66,26.82,29.43,9.63,40.18,1019.00,2040.99,3412.61,3275.49,3536.16,499.76,498.20,11.80,0000 0000 0000 0000 000000
2014-09-08 10:43:04,0.02,0.20,0.00,22.68,26.82,29.38,9.63,40.33,1019.00,2041.00,3412.03,3275.03,3535.89,499.96,498.36,11.84,0000 0000 0000 0000 000000
2014-09-08 10:48:05,0.04,0.21,0.00,22.65,26.82,29.36,9.59,40.02,1018.94,2041.00,3411.56,3274.70,3535.11,499.92,498.38,11.89,0000 0000 0000 0000 000000
2014-09-08 10:53:06,0.02,0.21,0.00,22.69,26.82,29.38,9.65,40.08,1018.80,2041.00,3411.00,3274.03,3534.70,500.12,498.51,11.93,0000 0000 0000 0000 000000
2014-09-08 10:58:07,0.03,0.21,0.00,22.72,26.84,29.37,9.62,39.95,1018.65,2041.00,3410.36,3273.78,3534.00,499.94,498.20,11.97,0000 0000 0000 0000 000000
2014-09-08 11:03:08,0.04,0.21,0.00,22.73,26.85,29.33,9.62,40.09,1018.64,2041.00,3409.78,3273.04,3533.19,499.98,498.12,12.01,0000 0000 0000 0000 000000
2014-09-08 11:08:09,0.03,0.21,0.00,22.70,26.85,29.30,9.65,39.94,1018.66,2041.00,3409.03,3272.61,3532.71,500.21,498.35,12.05,0000 0000 0000 0000 000000
2014-09-08 11:13:11,0.02,0.21,0.00,22.72,26.85,29.26,9.63,39.85,1018.82,2041.00,3408.71,3272.03,3532.04,500.82,499.03,12.09,0000 0000 0000 0000 000000
2014-09-08 11:18:12,0.04,0.21,0.00,22.73,26.85,29.32,9.65,39.88,1018.96,2041.00,3408.02,3271.70,3531.44,500.33,498.61,12.14,0000 0000 0000 0000 000000
2014-09-08 11:23:13,0.03,0.22,0.00,22.72,26.87,29.35,9.70,39.98,1018.97,2041.00,3407.34,3271.03,3530.94,500.31,498.62,12.18,0000 0000 0000 0000 000000
2014-09-08 11:28:14,0.03,0.22,0.00,22.73,26.87,29.31,9.65,39.98,1018.92,2041.00,3406.91,3270.71,3530.13,499.79,498.27,12.22,0000 0000 0000 0000 000000
2014-09-08 11:33:15,0.04,0.22,0.00,22.73,26.87,29.29,9.62,40.02,1018.88,2041.00,3406.09,3270.03,3529.46,500.26,498.65,12.26,0000 0000 0000 0000 000000
2014-09-08 11:38:17,0.03,0.22,0.00,22.75,26.88,29.33,9.64,39.83,1018.89,2041.00,3405.69,3269.60,3528.99,500.21,498.42,12.30,0000 0000 0000 0000 000000
2014-09-08 11:43:18,0.03,0.22,0.00,22.79,26.90,29.28,9.60,39.78,1018.79,2041.00,3405.03,3269.02,3528.32,499.79,498.12,12.35,0000 0000 0000 0000 000000
2014-09-08 11:48:19,0.05,0.22,0.00,22.79,26.90,29.30,9.54,39.70,1018.75,2040.97,3404.34,3268.42,3527.73,499.80,497.93,12.39,0000 0000 0000 0000 000000
2014-09-08 11:53:20,0.01,0.23,0.00,22.82,26.90,29.30,9.57,39.89,1018.67,2040.98,3403.98,3268.00,3527.02,500.02,497.91,12.43,0000 0000 0000 0000 000000
2014-09-08 11:58:21,0.05,0.23,0.00,22.84,26.92,29.29,9.65,39.89,1018.87,2040.97,3403.26,3267.47,3526.44,500.22,498.30,12.47,0000 0000 0000 0000 000000
2014-09-08 12:03:22,0.01,0.23,0.00,22.84,26.92,29.31,9.66,40.14,1018.83,2040.95,3402.86,3267.01,3525.96,500.25,498.22,12.51,0000 0000 0000 0000 000000
2014-09-08 12:08:23,0.05,0.23,0.00,22.87,26.93,29.31,9.56,39.98,1018.82,2040.95,3402.06,3266.47,3525.14,499.42,497.52,12.55,0000 0000 0000 0000 000000
2014-09-08 12:13:24,0.02,0.23,0.00,22.90,26.95,29.31,9.58,40.00,1018.69,2040.92,3401.53,3266.00,3524.76,500.20,498.01,12.60,0000 0000 0000 0000 000000
2014-09-08 12:18:25,0.02,0.23,0.00,22.93,26.95,29.32,9.60,39.88,1018.60,2040.80,3401.00,3265.47,3524.03,499.93,497.51,12.64,0000 0000 0000 0000 000000
2014-09-08 12:23:26,-0.00,0.23,0.00,22.93,26.97,29.32,9.61,39.82,1018.59,2040.38,3400.23,3265.01,3523.35,499.69,497.51,12.68,0000 0000 0000 0000 000000
2014-09-08 12:28:27,0.00,0.23,0.00,22.98,26.98,29.35,9.65,39.99,1018.58,2040.20,3399.98,3264.60,3522.99,499.86,497.65,12.72,0000 0000 0000 0000 000000
2014-09-08 12:33:28,0.03,0.23,0.00,23.02,27.00,29.36,9.55,40.06,1018.58,2040.13,3399.25,3264.05,3522.38,499.85,497.53,12.76,0000 0000 0000 0000 000000
2014-09-08 12:38:29,0.00,0.23,0.00,23.03,27.01,29.36,9.55,39.94,1018.59,2040.11,3398.96,3263.88,3521.98,499.74,497.32,12.81,0000 0000 0000 0000 000000
2014-09-08 12:43:30,0.04,0.24,0.00,23.08,27.02,29.37,9.61,39.90,1018.57,2040.01,3398.19,3263.13,3521.27,500.00,497.39,12.85,0000 0000 0000 0000 000000
2014-09-08 12:48:31,0.00,0.24,0.00,23.07,27.04,29.39,9.63,39.97,1018.58,2040.01,3397.96,3263.00,3520.98,500.25,497.79,12.89,0000 0000 0000 0000 000000
2014-09-08 12:53:32,0.05,0.24,0.00,23.08,27.05,29.41,9.58,39.93,1018.57,2040.00,3397.24,3262.56,3520.25,500.09,497.59,12.93,0000 0000 0000 0000 000000
2014-09-08 12:58:33,0.01,0.24,0.00,23.11,27.07,29.42,9.63,40.16,1018.57,2040.00,3396.86,3262.03,3519.98,500.42,497.64,12.97,0000 0000 0000 0000 000000